605  
ASUS43 KGLD 232008  
RWRGLD  
 
GOODLAND FORECAST AREA HOURLY WEATHER ROUNDUP  
NATIONAL WEATHER SERVICE GOODLAND KS  
200 PM MDT SUN JUL 23 2017  
   
..OFFICIAL OBSERVATIONS
 
 
 
CITY SKY/WX TMP DP RH WIND PRES REMARKS
 
GOODLAND KS SUNNY 90 54 29 E13G23 30.10F  
HILL CITY KS SUNNY 95 59 30 E10 30.02F  
IMPERIAL NEB SUNNY 95 43 16 VRB6 30.06F  
MCCOOK NEB SUNNY 94 53 25 VRB3 30.03F  
AKRON CO SUNNY 90 43 19 SE10 30.15F  
BURLINGTON CO SUNNY 90 51 26 E15G24 30.15S  
LIMON CO SUNNY 86 46 24 E12 30.20F  

 
   
..UNOFFICIAL OBSERVATIONS
 
 
 
CITY SKY/WX TMP DP RH WIND PRES REMARKS
 
LENORA KS N/A 91 32 12 MISG N/A  
NORTON KS SUNNY 93 50 22 NE6 30.02F  
SHARON SPRINGS N/A 89 61 38 SE7 N/A  
TRIBUNE KS SUNNY 90 61 37 E9 30.12  
TRENTON NEB N/A 95 32 11 CALM N/A  
KIT CARSON CO N/A 89 53 28 MISG N/A  
YUMA CO FAIR 88 32 13 S7 30.12F  

 
 
 
CLICK HERE TO GO TO PREVIOUS BULLETINS.

The Nexlab KS Page
The Nexlab CO Page
The Nexlab NE Page Main Text Page